Résultats sport de masse course à pied

Résultats : 100 Km entre Terre et Mer - 100 Km

Classement général Classement Catégorie Nom, prénom Catégorie Sexe Club Temps
1 1 LE GUERN OLIVIER V1 M TREGUEUX ATHLETISME 03:28:52
2 2 JEANNE Mickaël V1 M GDM ST JAMES 03:28:52
3 3 BERTONE Silvio V1 M ASD GIANNONERUNNING CIRCUIT 03:29:13
6 4 LE DUC Stephane V1 M B.L.A.T COURIR POUR OWEN 03:55:41
8 5 LEBORGNE FRANCK V1 M FFA SEMELLE DE VENT 04:01:10
9 6 UGUEN Pascal V1 M 04:15:11
12 7 EVALET Philippe V1 M 04:16:59
13 8 SUCRE HUGUES V1 M 04:17:30
14 9 LOZAHIC Yvon V1 M 04:19:47
15 10 PENNEC David V1 M 04:23:29
21 11 COLIN DAVID V1 M 04:35:51
22 12 BONNIN CYRIL V1 M 04:38:48
23 13 GAZZOLA PATRICK V1 M 04:39:57
28 14 BLEAS ALAIN V1 M S/L ES CORSEN 04:43:16
33 15 LEOST RONAN V1 M Herbauges Athlé 44 04:48:08
35 16 ROZEC HERVE V1 M 04:48:53
36 17 LE BRAS Jean-Claude V1 M 04:51:14
39 18 PIALLOUX franck V1 M 04:53:19
40 19 SAVIGNY dave V1 M 04:55:39
43 20 BARRE LAURENT V1 M 04:59:40
46 21 NICOLAS BRUNO V1 M LES CAVALEURS 05:01:30
49 1 JOUANNE MARIE-CLOTILDE V1 F LCBO 05:04:20
50 22 BARON Christophe V1 M 05:05:51
52 23 MATHIEU STEPHANE V1 M 05:08:31
55 24 PAUL Gilbert V1 M 05:09:03
56 25 LECHARME THIERRY V1 M TEAM TRAIL DE l'ABER BENOIT 05:10:45
57 2 LOZAHIC Gaelle V1 F 05:10:47
58 26 MENDIVE Jean-Claude V1 M 05:10:47
60 27 DUPUIS Xavier V1 M 05:12:06
64 28 GOURLAOUEN Dominique V1 M 05:14:52
66 29 MORVAN PATRICK V1 M 05:16:35
67 30 GUY Thierry V1 M 05:16:50
68 31 LIEVIN Stéphane V1 M ASMJ FEUQUIERES 05:18:41
69 32 MOTIR BERTRAND V1 M 05:18:51
73 33 LOUVEAU stephane V1 M 05:22:31
79 3 LE GAC Marie-cécile V1 F 05:30:46
84 4 FLOCH ARMELLE V1 F 05:33:25
85 34 DEMEERELEERE LUC V1 M 05:35:06
88 35 LE GOISTRE Laurent V1 M 05:39:46
92 36 BROUWEZ Xavier V1 M 05:48:27
93 37 BARON Jacques V1 M ASV CA LUCONNAIS 05:49:51
96 38 DENAIS PATRICK V1 M E. A. P. B. 05:52:03
104 39 DUJARDIN bruno V1 M BUSSY RUNNING 05:58:24
107 40 CONTRERAS juan V1 M Liciencié FFA 05:59:02
108 41 COUTELLIER JEAN SEBASTIEN V1 M LMA MEUNG SUR LOIRE 05:59:03
110 42 NICOLAS ARNAUD V1 M 06:01:05
117 5 NEDELEC Isabelle V1 F 06:15:06
125 43 PASINI patrick V1 M uavh 06:23:27
126 6 PASINI catherine V1 F uavh 06:23:27
130 44 LE POLLES Philippe V1 M 06:26:37
Première page Page précédente 1 2